Location: LDNL
(36.4545°S, 141.6685°E)
Time: 04:45:24
(UTC+11:00)

Vanguard 2 - Pass Details

Date: 18 August 2022
Orbit: 552 x 2934 km, 32.9° (Epoch: 06 October)

Event Time Altitude Azimuth Distance (km) Brightness Sun altitude
Rises 14:20:57 0° 315° (NW) 6,273 13.2 34.7°
Reaches altitude 10° 14:25:01 10° 320° (NW) 5,465 13.3 34.3°
Maximum altitude 14:41:19 50° 29° (NNE) 3,462 11.5 32.5°
Drops below altitude 10° 14:56:46 10° 97° (E) 5,231 11.5 30.5°
Sets 15:00:32 0° 102° (ESE) 6,001 11.7 30.0°
